Bloomington, IL

4:18 PM CDT on August 19, 2017 (GMT -0500)
Central Ill Regional

Weather History for KBMI - December, 2012

Change the Weather History Date:

Tuesday, December 11, 2012

  Actual Average Record
Temperature  
Mean Temperature 26 °F -  
Max Temperature 34 °F 33 °F 57 °F (2015)
Min Temperature 17 °F 18 °F 1 °F (2013)
Degree Days  
Heating Degree Days 40    
Moisture  
Dew Point 21 °F    
Average Humidity 80    
Maximum Humidity 96    
Minimum Humidity 62    
Precipitation  
Precipitation 0.00 in - - ()
Sea Level Pressure  
Sea Level Pressure 30.14 in    
Wind  
Wind Speed 10 mph (SW)    
Max Wind Speed 17 mph    
Max Gust Speed -    
Visibility 10 miles    
Events      
Averages and records for this station are not official NWS values.
T = Trace of Precipitation, MM = Missing Value Source: NWS Daily Summary

Daily Weather History Graph

Daily Weather History Graph

Search for Another Location

Airport or City:

Trip Planner

Search our weather history database for the weather conditions in past years. The results will help you decide how hot, cold, wet, or windy it might be!

Date:

Astronomy

Dec. 11, 2012 Rise Set
Actual Time 7:09 AM CST 4:29 PM CST
Civil Twilight 6:38 AM CST 4:59 PM CST
Nautical Twilight 6:04 AM CST 5:34 PM CST
Astronomical Twilight 5:31 AM CST 6:07 PM CST
Moon 5:03 AM CST (12/11) 3:08 PM CST (12/11)
Length of Visible Light 10h 21m
Length of Day
9h 19m
Waning Crescent, 4% of the Moon is Illuminated
Dec 11
Waning Crescent
Dec 13
New
Dec 19
First Quarter
Dec 28
Full
Jan 4
Last Quarter

Hourly Weather History & Observations

Time (CST) Temp. Windchill Dew Point Humidity Pressure Visibility Wind Dir Wind Speed Gust Speed Precip Events Conditions
12:56 AM 25.2 °F 15.7 °F 21.0 °F 84% 30.06 in 10.0 mi West 9.2 mph - N/A   Mostly Cloudy
1:56 AM 24.1 °F 15.2 °F 20.1 °F 85% 30.08 in 10.0 mi West 8.1 mph - N/A   Clear
2:56 AM 21.0 °F 11.4 °F 19.0 °F 92% 30.09 in 10.0 mi WSW 8.1 mph - N/A   Clear
3:56 AM 21.0 °F 12.4 °F 18.1 °F 89% 30.09 in 10.0 mi SW 6.9 mph - N/A   Clear
4:56 AM 20.1 °F 12.3 °F 17.1 °F 88% 30.10 in 10.0 mi WSW 5.8 mph - N/A   Clear
5:56 AM 19.0 °F 10.0 °F 17.1 °F 92% 30.11 in 10.0 mi SW 6.9 mph - N/A   Clear
6:56 AM 17.1 °F 6.6 °F 16.2 °F 96% 30.12 in 10.0 mi SW 8.1 mph - N/A   Clear
7:56 AM 20.1 °F 9.5 °F 17.1 °F 88% 30.12 in 10.0 mi SW 9.2 mph - N/A   Clear
8:56 AM 24.1 °F 13.1 °F 19.0 °F 81% 30.12 in 10.0 mi SW 11.5 mph - N/A   Clear
9:56 AM 27.1 °F 14.5 °F 20.1 °F 75% 30.13 in 10.0 mi SSW 17.3 mph - N/A   Clear
11:56 AM 31.1 °F 20.1 °F 22.1 °F 69% 30.11 in 10.0 mi SSW 16.1 mph - N/A   Clear
12:56 PM 32.9 °F 22.0 °F 21.0 °F 62% 30.10 in 10.0 mi SW 17.3 mph - N/A   Clear
1:56 PM 32.9 °F 22.0 °F 22.1 °F 65% 30.10 in 10.0 mi SW 17.3 mph - N/A   Clear
2:56 PM 34.0 °F 23.8 °F 23.0 °F 64% 30.10 in 10.0 mi SSW 16.1 mph - N/A   Clear
3:56 PM 32.9 °F 22.8 °F 23.0 °F 67% 30.12 in 10.0 mi SW 15.0 mph - N/A   Clear
4:56 PM 30.0 °F 21.7 °F 24.1 °F 79% 30.14 in 10.0 mi SSW 9.2 mph - N/A   Clear
5:56 PM 27.1 °F 18.9 °F 24.1 °F 88% 30.16 in 10.0 mi SSW 8.1 mph - N/A   Clear
6:56 PM 29.1 °F 19.4 °F 23.0 °F 78% 30.18 in 10.0 mi SW 11.5 mph - N/A   Clear
7:56 PM 29.1 °F 20.6 °F 23.0 °F 78% 30.20 in 10.0 mi SW 9.2 mph - N/A   Clear
8:56 PM 28.0 °F 19.3 °F 22.1 °F 78% 30.22 in 10.0 mi SW 9.2 mph - N/A   Clear
9:56 PM 28.0 °F 18.6 °F 22.1 °F 78% 30.22 in 10.0 mi SW 10.4 mph - N/A   Clear
10:56 PM 24.1 °F 15.2 °F 20.1 °F 85% 30.24 in 10.0 mi SSW 8.1 mph - N/A   Clear
11:56 PM 27.1 °F 18.2 °F 21.0 °F 78% 30.25 in 10.0 mi WSW 9.2 mph - N/A   Clear